Hourly Data Report for May 18, 2016

LA RONGE RCS
SASKATCHEWAN

55°08'47.020" N
105°16'13.030" W
378.60 m
4064149
71586
XOX

Download Data

Hourly Data (May 2016)
Hourly Data Report for May 18, 2016
TIME
LST
Temp Definition
°C
Dew Point Definition
°C
Rel Hum Definition
%
Precip. Amount Definition
mm

Wind Dir Definition
10's deg

Wind Spd Definition
km/h
Visibility Definition
km
Stn Press Definition
kPa
Hmdx Definition


Wind Chill Definition


Weather Definition


00:00 13.0 4.3 55 0.0 17 8   96.72     LegendNANA
01:00 11.9 3.7 57 0.0 17 3   96.69     LegendNANA
02:00 11.3 3.9 60 0.0 16 5   96.67     LegendNANA
03:00 9.1 3.4 68 0.0 0 1   96.64     LegendNANA
04:00 7.1 2.9 75 0.0   0   96.63     LegendNANA
05:00 5.7 2.8 82 0.0   0   96.60     LegendNANA
06:00 7.1 4.2 81 0.0 0 1   96.59     LegendNANA
07:00 12.1 5.7 65 0.0 0 1   96.57     LegendNANA
08:00 15.3 5.2 51 0.0 29 4   96.55     LegendNANA
09:00 17.7 5.9 46 0.0 28 3   96.53     LegendNANA
10:00 19.1 6.5 44 0.0 17 8   96.50     LegendNANA
11:00 20.8 5.1 36 0.0 16 8   96.47     LegendNANA
12:00 21.3 3.7 31 0.0 16 11   96.45     LegendNANA
13:00 21.9 2.3 27 0.0 17 9   96.42     LegendNANA
14:00 22.8 3.4 28 0.0 13 11   96.37     LegendNANA
15:00 23.2 2.6 26 0.0 13 13   96.33     LegendNANA
16:00 23.1 0.6 23 0.0 14 10   96.31     LegendNANA
17:00
18:00 22.5 2.4 27 0.0 5 8   96.24     LegendNANA
19:00 21.0 3.0 30 0.0 5 7   96.21     LegendNANA
20:00 20.4 3.3 32 0.0 7 1   96.19     LegendNANA
21:00 16.5 4.7 45 0.0   0   96.21     LegendNANA
22:00 13.2 4.3 55 0.0   0   96.21     LegendNANA
23:00 12.5 5.6 63 0.0   0   96.19     LegendNANA

Notes on Data Quality.

Legend

  • E = Estimated
  • M = Missing
  • NA = Not Available*
  • [empty] = Indicates an unobserved value
Date modified: